Location: Recife
(8.0585°S, 34.8848°W)
Time: 21:58:44
(UTC-03:00)

Vanguard 2 - Pass Details

Date: 20 April 2026
Orbit: 553 x 2895 km, 32.9° (Epoch: 17 May)

Event Time Altitude Azimuth Distance (km) Brightness Sun altitude
Exits shadow 04:51:06 - 238° (WSW) 5,790 11.4 -8.3°
Reaches altitude 10° 04:53:24 10° 238° (WSW) 5,160 11.1 -7.7°
Maximum altitude 05:07:33 80° 323° (NW) 1,765 9.3 -4.3°
Drops below altitude 10° 05:15:53 10° 50° (NE) 3,190 11.9 -2.2°
Sets 05:18:08 0° 52° (NE) 3,912 12.5 -1.7°
